Tracking 31027 objects as of 19-Jul-2025
HD Live streaming from Space Station
objects crossing your sky now

QIANFAN-48

Track QIANFAN-48 now!
10-day predictions
QIANFAN-48 is classified as:


NORAD ID: 62249
Int'l Code: 2024-232N
Perigee: 1,064.6 km
Apogee: 1,087.2 km
Inclination: 89.0 °
Period: 106.6 minutes
Semi major axis: 7446 km
RCS: Unknown
Launch date: December 5, 2024
Source: People's Republic of China (PRC)
Launch site: Taiyaun Space Center, China (TSC)
Your satellite tracking list
SES-6
Track 1 satellite(s)




NASA's NSSDC Master Catalog

Two Line Element Set (TLE):
1 62249U 24232N   25199.90779807  .00000061  00000-0  76131-4 0  9998
2 62249  88.9940  56.0743 0015142 265.3317  94.6105 13.50952103 79424
Source of the keplerian elements: AFSPC